owner,sensor,date,latitude,longitude,vertical_datum,mass_concentration_of_oxygen_in_sea_water,qcFlag 
DISL,ioos:station:DISL:KATA:1,2013-12-01T00:00:00Z,30.2583,-88.2131,4.122,7.14,1111122 
DISL,ioos:station:DISL:KATA:1,2013-12-01T00:30:00Z,30.2583,-88.2131,4.132,7.03,1111122 
DISL,ioos:station:DISL:KATA:1,2013-12-01T01:00:00Z,30.2583,-88.2131,4.142,6.99,1111122 
DISL,ioos:station:DISL:KATA:1,2013-12-01T01:30:00Z,30.2583,-88.2131,4.136,7.21,1111122 
DISL,ioos:station:DISL:KATA:1,2013-12-01T02:00:00Z,30.2583,-88.2131,4.12,7.09,1111122 
DISL,ioos:station:DISL:KATA:1,2013-12-01T02:30:00Z,30.2583,-88.2131,4.1,6.87,1111122 
DISL,ioos:station:DISL:KATA:1,2013-12-01T03:00:00Z,30.2583,-88.2131,4.084,6.64,1111122 
DISL,ioos:station:DISL:KATA:1,2013-12-01T03:30:00Z,30.2583,-88.2131,4.058,6.74,1111122 
DISL,ioos:station:DISL:KATA:1,2013-12-01T04:00:00Z,30.2583,-88.2131,4.025,6.68,1111122 
DISL,ioos:station:DISL:KATA:1,2013-12-01T04:30:00Z,30.2583,-88.2131,4.006,6.79,1111122 
DISL,ioos:station:DISL:KATA:1,2013-12-01T05:00:00Z,30.2583,-88.2131,3.976,6.77,1111122 
DISL,ioos:station:DISL:KATA:1,2013-12-01T05:30:00Z,30.2583,-88.2131,3.936,6.87,1111122 
DISL,ioos:station:DISL:KATA:1,2013-12-01T06:00:00Z,30.2583,-88.2131,3.9,7.32,1111122 
DISL,ioos:station:DISL:KATA:1,2013-12-01T06:30:00Z,30.2583,-88.2131,3.849,7.89,1111122 
DISL,ioos:station:DISL:KATA:1,2013-12-01T07:00:00Z,30.2583,-88.2131,3.792,8.21,1111122 
DISL,ioos:station:DISL:KATA:1,2013-12-01T07:30:00Z,30.2583,-88.2131,3.735,8.2,1111122 
DISL,ioos:station:DISL:KATA:1,2013-12-01T08:00:00Z,30.2583,-88.2131,3.681,8.53,1111122 
DISL,ioos:station:DISL:KATA:1,2013-12-01T08:30:00Z,30.2583,-88.2131,3.626,8.15,1111122 
DISL,ioos:station:DISL:KATA:1,2013-12-01T09:00:00Z,30.2583,-88.2131,3.594,8.3,1111122 
DISL,ioos:station:DISL:KATA:1,2013-12-01T09:30:00Z,30.2583,-88.2131,3.563,8.55,1111122 
DISL,ioos:station:DISL:KATA:1,2013-12-01T10:00:00Z,30.2583,-88.2131,3.549,8.74,1111122 
DISL,ioos:station:DISL:KATA:1,2013-12-01T10:30:00Z,30.2583,-88.2131,3.54,8.53,1111122 
DISL,ioos:station:DISL:KATA:1,2013-12-01T11:00:00Z,30.2583,-88.2131,3.528,7.49,1111122 
DISL,ioos:station:DISL:KATA:1,2013-12-01T11:30:00Z,30.2583,-88.2131,3.534,7.6,1111122 
DISL,ioos:station:DISL:KATA:1,2013-12-01T12:00:00Z,30.2583,-88.2131,3.551,7.37,1111122 
DISL,ioos:station:DISL:KATA:1,2013-12-01T12:30:00Z,30.2583,-88.2131,3.563,7.24,1111122 
DISL,ioos:station:DISL:KATA:1,2013-12-01T13:00:00Z,30.2583,-88.2131,3.579,6.65,1111122 
DISL,ioos:station:DISL:KATA:1,2013-12-01T13:30:00Z,30.2583,-88.2131,3.608,6.91,1111122 
DISL,ioos:station:DISL:KATA:1,2013-12-01T14:00:00Z,30.2583,-88.2131,3.633,6.99,1111122 
DISL,ioos:station:DISL:KATA:1,2013-12-01T14:30:00Z,30.2583,-88.2131,3.654,7.36,1111122 
DISL,ioos:station:DISL:KATA:1,2013-12-01T15:00:00Z,30.2583,-88.2131,3.694,7.18,1111122 
DISL,ioos:station:DISL:KATA:1,2013-12-01T15:30:00Z,30.2583,-88.2131,3.725,7.2,1111122 
DISL,ioos:station:DISL:KATA:1,2013-12-01T16:00:00Z,30.2583,-88.2131,3.761,7.19,1111122 
DISL,ioos:station:DISL:KATA:1,2013-12-01T16:30:00Z,30.2583,-88.2131,3.806,7.34,1111122 
DISL,ioos:station:DISL:KATA:1,2013-12-01T17:00:00Z,30.2583,-88.2131,3.836,7.48,1111122 
DISL,ioos:station:DISL:KATA:1,2013-12-01T17:30:00Z,30.2583,-88.2131,3.869,7.65,1111122 
DISL,ioos:station:DISL:KATA:1,2013-12-01T18:00:00Z,30.2583,-88.2131,3.908,7.88,1111122 
DISL,ioos:station:DISL:KATA:1,2013-12-01T18:30:00Z,30.2583,-88.2131,3.933,8.03,1111122 
DISL,ioos:station:DISL:KATA:1,2013-12-01T19:00:00Z,30.2583,-88.2131,3.962,8.21,1111122 
DISL,ioos:station:DISL:KATA:1,2013-12-01T19:30:00Z,30.2583,-88.2131,3.996,8.36,1111122 
DISL,ioos:station:DISL:KATA:1,2013-12-01T20:00:00Z,30.2583,-88.2131,4.025,8.46,1111122 
DISL,ioos:station:DISL:KATA:1,2013-12-01T20:30:00Z,30.2583,-88.2131,4.061,8.5,1111122 
DISL,ioos:station:DISL:KATA:1,2013-12-01T21:00:00Z,30.2583,-88.2131,4.092,8.44,1111122 
DISL,ioos:station:DISL:KATA:1,2013-12-01T21:30:00Z,30.2583,-88.2131,4.135,8.47,1111122 
DISL,ioos:station:DISL:KATA:1,2013-12-01T22:00:00Z,30.2583,-88.2131,4.165,8.55,1111122 
DISL,ioos:station:DISL:KATA:1,2013-12-01T22:30:00Z,30.2583,-88.2131,4.186,8.57,1111122 
DISL,ioos:station:DISL:KATA:1,2013-12-01T23:00:00Z,30.2583,-88.2131,4.22,8.64,1111122 
DISL,ioos:station:DISL:KATA:1,2013-12-01T23:30:00Z,30.2583,-88.2131,4.252,8.71,1111122 
DISL,ioos:station:DISL:KATA:1,2013-12-02T00:00:00Z,30.2583,-88.2131,4.281,8.78,1111122 
DISL,ioos:station:DISL:KATA:1,2013-12-02T00:30:00Z,30.2583,-88.2131,4.311,8.76,1111122 
DISL,ioos:station:DISL:KATA:1,2013-12-02T01:00:00Z,30.2583,-88.2131,4.33,8.75,1111122 
DISL,ioos:station:DISL:KATA:1,2013-12-02T01:30:00Z,30.2583,-88.2131,4.342,8.64,1111122 
DISL,ioos:station:DISL:KATA:1,2013-12-02T02:00:00Z,30.2583,-88.2131,4.336,8.54,1111122 
DISL,ioos:station:DISL:KATA:1,2013-12-02T02:30:00Z,30.2583,-88.2131,4.334,8.47,1111122 
DISL,ioos:station:DISL:KATA:1,2013-12-02T03:00:00Z,30.2583,-88.2131,4.311,8.46,1111122 
DISL,ioos:station:DISL:KATA:1,2013-12-02T03:30:00Z,30.2583,-88.2131,4.284,8.79,1111122 
DISL,ioos:station:DISL:KATA:1,2013-12-02T04:00:00Z,30.2583,-88.2131,4.252,8.42,1111122 
DISL,ioos:station:DISL:KATA:1,2013-12-02T04:30:00Z,30.2583,-88.2131,4.221,8.33,1111122 
DISL,ioos:station:DISL:KATA:1,2013-12-02T05:00:00Z,30.2583,-88.2131,4.178,8.24,1111122 
DISL,ioos:station:DISL:KATA:1,2013-12-02T05:30:00Z,30.2583,-88.2131,4.139,8.5,1111122 
DISL,ioos:station:DISL:KATA:1,2013-12-02T06:00:00Z,30.2583,-88.2131,4.094,8.68,1111122 
DISL,ioos:station:DISL:KATA:1,2013-12-02T06:30:00Z,30.2583,-88.2131,4.048,8.97,1111122 
DISL,ioos:station:DISL:KATA:1,2013-12-02T07:00:00Z,30.2583,-88.2131,3.984,9.02,1111122 
DISL,ioos:station:DISL:KATA:1,2013-12-02T07:30:00Z,30.2583,-88.2131,3.924,9.02,1111122 
DISL,ioos:station:DISL:KATA:1,2013-12-02T08:00:00Z,30.2583,-88.2131,3.858,9.15,1111122 
DISL,ioos:station:DISL:KATA:1,2013-12-02T08:30:00Z,30.2583,-88.2131,3.798,9.38,1111122 
DISL,ioos:station:DISL:KATA:1,2013-12-02T09:00:00Z,30.2583,-88.2131,3.737,9.4,1111122 
DISL,ioos:station:DISL:KATA:1,2013-12-02T09:30:00Z,30.2583,-88.2131,3.679,9.55,1111122 
DISL,ioos:station:DISL:KATA:1,2013-12-02T10:00:00Z,30.2583,-88.2131,3.64,9.43,1111122 
DISL,ioos:station:DISL:KATA:1,2013-12-02T10:30:00Z,30.2583,-88.2131,3.598,9.46,1111122 
DISL,ioos:station:DISL:KATA:1,2013-12-02T11:00:00Z,30.2583,-88.2131,3.569,9.5,1111122 
DISL,ioos:station:DISL:KATA:1,2013-12-02T11:30:00Z,30.2583,-88.2131,3.545,9.57,1111122 
DISL,ioos:station:DISL:KATA:1,2013-12-02T12:00:00Z,30.2583,-88.2131,3.535,9.63,1111122 
DISL,ioos:station:DISL:KATA:1,2013-12-02T12:30:00Z,30.2583,-88.2131,3.543,9.4,1111122 
DISL,ioos:station:DISL:KATA:1,2013-12-02T13:00:00Z,30.2583,-88.2131,3.541,9.09,1111122 
DISL,ioos:station:DISL:KATA:1,2013-12-02T13:30:00Z,30.2583,-88.2131,3.569,9.24,1111122 
DISL,ioos:station:DISL:KATA:1,2013-12-02T14:00:00Z,30.2583,-88.2131,3.589,9.38,1111122 
DISL,ioos:station:DISL:KATA:1,2013-12-02T14:30:00Z,30.2583,-88.2131,3.623,9.49,1111122 
DISL,ioos:station:DISL:KATA:1,2013-12-02T15:00:00Z,30.2583,-88.2131,3.653,9.23,1111122 
DISL,ioos:station:DISL:KATA:1,2013-12-02T15:30:00Z,30.2583,-88.2131,3.68,9.2,1111122 
DISL,ioos:station:DISL:KATA:1,2013-12-02T16:00:00Z,30.2583,-88.2131,3.712,9.31,1111122 
DISL,ioos:station:DISL:KATA:1,2013-12-02T16:30:00Z,30.2583,-88.2131,3.748,9.4,1111122 
DISL,ioos:station:DISL:KATA:1,2013-12-02T17:00:00Z,30.2583,-88.2131,3.781,9.41,1111122 
DISL,ioos:station:DISL:KATA:1,2013-12-02T17:30:00Z,30.2583,-88.2131,3.822,9.44,1111122 
DISL,ioos:station:DISL:KATA:1,2013-12-02T18:00:00Z,30.2583,-88.2131,3.859,9.45,1111122 
DISL,ioos:station:DISL:KATA:1,2013-12-02T18:30:00Z,30.2583,-88.2131,3.897,9.5,1111122 
DISL,ioos:station:DISL:KATA:1,2013-12-02T19:00:00Z,30.2583,-88.2131,3.938,9.64,1111122 
DISL,ioos:station:DISL:KATA:1,2013-12-02T19:30:00Z,30.2583,-88.2131,3.972,9.73,1111122 
DISL,ioos:station:DISL:KATA:1,2013-12-02T20:00:00Z,30.2583,-88.2131,4.011,9.76,1111122 
DISL,ioos:station:DISL:KATA:1,2013-12-02T20:30:00Z,30.2583,-88.2131,4.05,9.78,1111122 
DISL,ioos:station:DISL:KATA:1,2013-12-02T21:00:00Z,30.2583,-88.2131,4.09,9.75,1111122 
DISL,ioos:station:DISL:KATA:1,2013-12-02T21:30:00Z,30.2583,-88.2131,4.126,9.75,1111122 
DISL,ioos:station:DISL:KATA:1,2013-12-02T22:00:00Z,30.2583,-88.2131,4.167,9.77,1111122 
DISL,ioos:station:DISL:KATA:1,2013-12-02T22:30:00Z,30.2583,-88.2131,4.215,9.68,1111122 
DISL,ioos:station:DISL:KATA:1,2013-12-02T23:00:00Z,30.2583,-88.2131,4.256,9.65,1111122 
DISL,ioos:station:DISL:KATA:1,2013-12-02T23:30:00Z,30.2583,-88.2131,4.3,9.71,1111122 
DISL,ioos:station:DISL:KATA:1,2013-12-03T00:00:00Z,30.2583,-88.2131,4.346,9.69,1111122 
DISL,ioos:station:DISL:KATA:1,2013-12-03T00:30:00Z,30.2583,-88.2131,4.383,9.59,1111122 
DISL,ioos:station:DISL:KATA:1,2013-12-03T01:00:00Z,30.2583,-88.2131,4.415,9.61,1111122 
DISL,ioos:station:DISL:KATA:1,2013-12-03T01:30:00Z,30.2583,-88.2131,4.451,9.69,1111122 
DISL,ioos:station:DISL:KATA:1,2013-12-03T02:00:00Z,30.2583,-88.2131,4.472,9.61,1111122 
DISL,ioos:station:DISL:KATA:1,2013-12-03T02:30:00Z,30.2583,-88.2131,4.495,9.56,1111122 
DISL,ioos:station:DISL:KATA:1,2013-12-03T03:00:00Z,30.2583,-88.2131,4.507,9.48,1111122 
DISL,ioos:station:DISL:KATA:1,2013-12-03T03:30:00Z,30.2583,-88.2131,4.498,9.5,1111122 
DISL,ioos:station:DISL:KATA:1,2013-12-03T04:00:00Z,30.2583,-88.2131,4.485,9.41,1111122 
DISL,ioos:station:DISL:KATA:1,2013-12-03T04:30:00Z,30.2583,-88.2131,4.454,9.43,1111122 
DISL,ioos:station:DISL:KATA:1,2013-12-03T05:00:00Z,30.2583,-88.2131,4.424,9.19,1111122 
DISL,ioos:station:DISL:KATA:1,2013-12-03T05:30:00Z,30.2583,-88.2131,4.382,9.0,1111122 
DISL,ioos:station:DISL:KATA:1,2013-12-03T06:00:00Z,30.2583,-88.2131,4.348,9.03,1111122 
DISL,ioos:station:DISL:KATA:1,2013-12-03T06:30:00Z,30.2583,-88.2131,4.305,9.09,1111122 
DISL,ioos:station:DISL:KATA:1,2013-12-03T07:00:00Z,30.2583,-88.2131,4.252,9.19,1111122 
DISL,ioos:station:DISL:KATA:1,2013-12-03T07:30:00Z,30.2583,-88.2131,4.2,9.34,1111122 
DISL,ioos:station:DISL:KATA:1,2013-12-03T08:00:00Z,30.2583,-88.2131,4.148,9.49,1111122 
DISL,ioos:station:DISL:KATA:1,2013-12-03T08:30:00Z,30.2583,-88.2131,4.083,9.52,1111122 
DISL,ioos:station:DISL:KATA:1,2013-12-03T09:00:00Z,30.2583,-88.2131,4.031,9.57,1111122 
DISL,ioos:station:DISL:KATA:1,2013-12-03T09:30:00Z,30.2583,-88.2131,3.982,9.58,1111122 
DISL,ioos:station:DISL:KATA:1,2013-12-03T10:00:00Z,30.2583,-88.2131,3.932,9.61,1111122 
DISL,ioos:station:DISL:KATA:1,2013-12-03T10:30:00Z,30.2583,-88.2131,3.885,9.78,1111122 
DISL,ioos:station:DISL:KATA:1,2013-12-03T11:00:00Z,30.2583,-88.2131,3.84,9.9,1111122 
DISL,ioos:station:DISL:KATA:1,2013-12-03T11:30:00Z,30.2583,-88.2131,3.801,9.83,1111122 
DISL,ioos:station:DISL:KATA:1,2013-12-03T12:00:00Z,30.2583,-88.2131,3.765,9.77,1111122 
DISL,ioos:station:DISL:KATA:1,2013-12-03T12:30:00Z,30.2583,-88.2131,3.734,9.78,1111122 
DISL,ioos:station:DISL:KATA:1,2013-12-03T13:00:00Z,30.2583,-88.2131,3.722,9.82,1111122 
DISL,ioos:station:DISL:KATA:1,2013-12-03T13:30:00Z,30.2583,-88.2131,3.722,9.56,1111122 
DISL,ioos:station:DISL:KATA:1,2013-12-03T14:00:00Z,30.2583,-88.2131,3.737,9.33,1111122 
DISL,ioos:station:DISL:KATA:1,2013-12-03T14:30:00Z,30.2583,-88.2131,3.759,9.65,1111122 
DISL,ioos:station:DISL:KATA:1,2013-12-03T15:00:00Z,30.2583,-88.2131,3.782,9.68,1111122 
DISL,ioos:station:DISL:KATA:1,2013-12-03T15:30:00Z,30.2583,-88.2131,3.8,9.77,1111122 
DISL,ioos:station:DISL:KATA:1,2013-12-03T16:00:00Z,30.2583,-88.2131,3.818,9.77,1111122 
DISL,ioos:station:DISL:KATA:1,2013-12-03T16:30:00Z,30.2583,-88.2131,3.831,9.78,1111122 
DISL,ioos:station:DISL:KATA:1,2013-12-03T17:00:00Z,30.2583,-88.2131,3.857,9.05,1111122 
DISL,ioos:station:DISL:KATA:1,2013-12-03T17:30:00Z,30.2583,-88.2131,3.884,9.07,1111122 
DISL,ioos:station:DISL:KATA:1,2013-12-03T18:00:00Z,30.2583,-88.2131,3.916,9.16,1111122 
DISL,ioos:station:DISL:KATA:1,2013-12-03T18:30:00Z,30.2583,-88.2131,3.942,9.17,1111122 
DISL,ioos:station:DISL:KATA:1,2013-12-03T19:00:00Z,30.2583,-88.2131,3.972,9.29,1111122 
DISL,ioos:station:DISL:KATA:1,2013-12-03T19:30:00Z,30.2583,-88.2131,4.003,9.45,1111122 
DISL,ioos:station:DISL:KATA:1,2013-12-03T20:00:00Z,30.2583,-88.2131,4.04,9.58,1111122 
DISL,ioos:station:DISL:KATA:1,2013-12-03T20:30:00Z,30.2583,-88.2131,4.076,9.78,1111122 
DISL,ioos:station:DISL:KATA:1,2013-12-03T21:00:00Z,30.2583,-88.2131,4.105,9.87,1111122 
DISL,ioos:station:DISL:KATA:1,2013-12-03T21:30:00Z,30.2583,-88.2131,4.136,9.84,1111122 
DISL,ioos:station:DISL:KATA:1,2013-12-03T22:00:00Z,30.2583,-88.2131,4.156,9.9,1111122 
DISL,ioos:station:DISL:KATA:1,2013-12-03T22:30:00Z,30.2583,-88.2131,4.187,9.96,1111122 
DISL,ioos:station:DISL:KATA:1,2013-12-03T23:00:00Z,30.2583,-88.2131,4.217,9.94,1111122 
DISL,ioos:station:DISL:KATA:1,2013-12-03T23:30:00Z,30.2583,-88.2131,4.258,9.81,1111122 
DISL,ioos:station:DISL:KATA:1,2013-12-04T00:00:00Z,30.2583,-88.2131,4.297,9.79,1111122 
DISL,ioos:station:DISL:KATA:1,2013-12-04T00:30:00Z,30.2583,-88.2131,4.328,9.68,1111122 
DISL,ioos:station:DISL:KATA:1,2013-12-04T01:00:00Z,30.2583,-88.2131,4.37,9.61,1111122 
DISL,ioos:station:DISL:KATA:1,2013-12-04T01:30:00Z,30.2583,-88.2131,4.401,9.45,1111122 
DISL,ioos:station:DISL:KATA:1,2013-12-04T02:00:00Z,30.2583,-88.2131,4.439,9.41,1111122 
DISL,ioos:station:DISL:KATA:1,2013-12-04T02:30:00Z,30.2583,-88.2131,4.469,9.38,1111122 
DISL,ioos:station:DISL:KATA:1,2013-12-04T03:00:00Z,30.2583,-88.2131,4.48,9.29,1111122 
DISL,ioos:station:DISL:KATA:1,2013-12-04T03:30:00Z,30.2583,-88.2131,4.487,9.2,1111122 
DISL,ioos:station:DISL:KATA:1,2013-12-04T04:00:00Z,30.2583,-88.2131,4.489,9.12,1111122 
DISL,ioos:station:DISL:KATA:1,2013-12-04T04:30:00Z,30.2583,-88.2131,4.477,9.04,1111122 
DISL,ioos:station:DISL:KATA:1,2013-12-04T05:00:00Z,30.2583,-88.2131,4.456,8.69,1111122 
DISL,ioos:station:DISL:KATA:1,2013-12-04T05:30:00Z,30.2583,-88.2131,4.428,8.6,1111122 
DISL,ioos:station:DISL:KATA:1,2013-12-04T06:00:00Z,30.2583,-88.2131,4.395,8.57,1111122 
DISL,ioos:station:DISL:KATA:1,2013-12-04T06:30:00Z,30.2583,-88.2131,4.355,8.68,1111122 
DISL,ioos:station:DISL:KATA:1,2013-12-04T07:00:00Z,30.2583,-88.2131,4.315,8.76,1111122 
DISL,ioos:station:DISL:KATA:1,2013-12-04T07:30:00Z,30.2583,-88.2131,4.282,8.77,1111122 
DISL,ioos:station:DISL:KATA:1,2013-12-04T08:00:00Z,30.2583,-88.2131,4.236,8.93,1111122 
DISL,ioos:station:DISL:KATA:1,2013-12-04T08:30:00Z,30.2583,-88.2131,4.188,8.9,1111122 
DISL,ioos:station:DISL:KATA:1,2013-12-04T09:00:00Z,30.2583,-88.2131,4.126,8.99,1111122 
DISL,ioos:station:DISL:KATA:1,2013-12-04T09:30:00Z,30.2583,-88.2131,4.066,9.06,1111122 
DISL,ioos:station:DISL:KATA:1,2013-12-04T10:00:00Z,30.2583,-88.2131,4.003,9.18,1111122 
DISL,ioos:station:DISL:KATA:1,2013-12-04T10:30:00Z,30.2583,-88.2131,3.943,9.24,1111122 
DISL,ioos:station:DISL:KATA:1,2013-12-04T11:00:00Z,30.2583,-88.2131,3.892,9.28,1111122 
DISL,ioos:station:DISL:KATA:1,2013-12-04T11:30:00Z,30.2583,-88.2131,3.839,9.33,1111122 
DISL,ioos:station:DISL:KATA:1,2013-12-04T12:00:00Z,30.2583,-88.2131,3.802,9.29,1111122 
DISL,ioos:station:DISL:KATA:1,2013-12-04T12:30:00Z,30.2583,-88.2131,3.766,9.26,1111122 
DISL,ioos:station:DISL:KATA:1,2013-12-04T13:00:00Z,30.2583,-88.2131,3.743,9.31,1111122 
DISL,ioos:station:DISL:KATA:1,2013-12-04T13:30:00Z,30.2583,-88.2131,3.727,9.28,1111122 
DISL,ioos:station:DISL:KATA:1,2013-12-04T14:00:00Z,30.2583,-88.2131,3.724,9.29,1111122 
DISL,ioos:station:DISL:KATA:1,2013-12-04T14:30:00Z,30.2583,-88.2131,3.734,9.25,1111122 
DISL,ioos:station:DISL:KATA:1,2013-12-04T15:00:00Z,30.2583,-88.2131,3.749,8.92,1111122 
DISL,ioos:station:DISL:KATA:1,2013-12-04T15:30:00Z,30.2583,-88.2131,3.773,8.75,1111122 
DISL,ioos:station:DISL:KATA:1,2013-12-04T16:00:00Z,30.2583,-88.2131,3.795,8.91,1111122 
DISL,ioos:station:DISL:KATA:1,2013-12-04T16:30:00Z,30.2583,-88.2131,3.817,9.02,1111122 
DISL,ioos:station:DISL:KATA:1,2013-12-04T17:00:00Z,30.2583,-88.2131,3.827,9.18,1111122 
DISL,ioos:station:DISL:KATA:1,2013-12-04T17:30:00Z,30.2583,-88.2131,3.844,9.22,1111122 
DISL,ioos:station:DISL:KATA:1,2013-12-04T18:00:00Z,30.2583,-88.2131,3.868,9.42,1111122 
DISL,ioos:station:DISL:KATA:1,2013-12-04T18:30:00Z,30.2583,-88.2131,3.893,8.38,1111122 
DISL,ioos:station:DISL:KATA:1,2013-12-04T19:00:00Z,30.2583,-88.2131,3.922,8.53,1111122 
DISL,ioos:station:DISL:KATA:1,2013-12-04T19:30:00Z,30.2583,-88.2131,3.957,8.61,1111122 
DISL,ioos:station:DISL:KATA:1,2013-12-04T20:00:00Z,30.2583,-88.2131,3.989,8.71,1111122 
DISL,ioos:station:DISL:KATA:1,2013-12-04T20:30:00Z,30.2583,-88.2131,4.019,8.79,1111122 
DISL,ioos:station:DISL:KATA:1,2013-12-04T21:00:00Z,30.2583,-88.2131,4.056,9.15,1111122 
DISL,ioos:station:DISL:KATA:1,2013-12-04T21:30:00Z,30.2583,-88.2131,4.088,9.3,1111122 
DISL,ioos:station:DISL:KATA:1,2013-12-04T22:00:00Z,30.2583,-88.2131,4.119,9.38,1111122 
DISL,ioos:station:DISL:KATA:1,2013-12-04T22:30:00Z,30.2583,-88.2131,4.153,9.35,1111122 
DISL,ioos:station:DISL:KATA:1,2013-12-04T23:00:00Z,30.2583,-88.2131,4.187,9.26,1111122 
DISL,ioos:station:DISL:KATA:1,2013-12-04T23:30:00Z,30.2583,-88.2131,4.22,9.24,1111122 
DISL,ioos:station:DISL:KATA:1,2013-12-05T00:00:00Z,30.2583,-88.2131,4.256,9.28,1111122 
DISL,ioos:station:DISL:KATA:1,2013-12-05T00:30:00Z,30.2583,-88.2131,4.293,9.25,1111122 
DISL,ioos:station:DISL:KATA:1,2013-12-05T01:00:00Z,30.2583,-88.2131,4.336,9.34,1111122 
DISL,ioos:station:DISL:KATA:1,2013-12-05T01:30:00Z,30.2583,-88.2131,4.39,9.23,1111122 
DISL,ioos:station:DISL:KATA:1,2013-12-05T02:00:00Z,30.2583,-88.2131,4.427,9.19,1111122 
DISL,ioos:station:DISL:KATA:1,2013-12-05T02:30:00Z,30.2583,-88.2131,4.46,9.09,1111122 
DISL,ioos:station:DISL:KATA:1,2013-12-05T03:00:00Z,30.2583,-88.2131,4.492,8.98,1111122 
DISL,ioos:station:DISL:KATA:1,2013-12-05T03:30:00Z,30.2583,-88.2131,4.521,8.92,1111122 
DISL,ioos:station:DISL:KATA:1,2013-12-05T04:00:00Z,30.2583,-88.2131,4.533,8.89,1111122 
DISL,ioos:station:DISL:KATA:1,2013-12-05T04:30:00Z,30.2583,-88.2131,4.53,8.86,1111122 
DISL,ioos:station:DISL:KATA:1,2013-12-05T05:00:00Z,30.2583,-88.2131,4.517,8.82,1111122 
DISL,ioos:station:DISL:KATA:1,2013-12-05T05:30:00Z,30.2583,-88.2131,4.487,8.87,1111122 
DISL,ioos:station:DISL:KATA:1,2013-12-05T06:00:00Z,30.2583,-88.2131,4.458,8.79,1111122 
DISL,ioos:station:DISL:KATA:1,2013-12-05T06:30:00Z,30.2583,-88.2131,4.416,8.57,1111122 
DISL,ioos:station:DISL:KATA:1,2013-12-05T07:00:00Z,30.2583,-88.2131,4.374,8.05,1111122 
DISL,ioos:station:DISL:KATA:1,2013-12-05T07:30:00Z,30.2583,-88.2131,4.344,8.6,1111122 
DISL,ioos:station:DISL:KATA:1,2013-12-05T08:00:00Z,30.2583,-88.2131,4.309,8.65,1111122 
DISL,ioos:station:DISL:KATA:1,2013-12-05T08:30:00Z,30.2583,-88.2131,4.265,8.65,1111122 
DISL,ioos:station:DISL:KATA:1,2013-12-05T09:00:00Z,30.2583,-88.2131,4.216,8.75,1111122 
DISL,ioos:station:DISL:KATA:1,2013-12-05T09:30:00Z,30.2583,-88.2131,4.165,8.77,1111122 
DISL,ioos:station:DISL:KATA:1,2013-12-05T10:00:00Z,30.2583,-88.2131,4.109,8.73,1111122 
DISL,ioos:station:DISL:KATA:1,2013-12-05T10:30:00Z,30.2583,-88.2131,4.049,8.76,1111122 
DISL,ioos:station:DISL:KATA:1,2013-12-05T11:00:00Z,30.2583,-88.2131,3.991,8.82,1111122 
DISL,ioos:station:DISL:KATA:1,2013-12-05T11:30:00Z,30.2583,-88.2131,3.936,8.88,1111122 
DISL,ioos:station:DISL:KATA:1,2013-12-05T12:00:00Z,30.2583,-88.2131,3.882,8.87,1111122 
DISL,ioos:station:DISL:KATA:1,2013-12-05T12:30:00Z,30.2583,-88.2131,3.836,8.93,1111122 
DISL,ioos:station:DISL:KATA:1,2013-12-05T13:00:00Z,30.2583,-88.2131,3.804,8.94,1111122 
DISL,ioos:station:DISL:KATA:1,2013-12-05T13:30:00Z,30.2583,-88.2131,3.771,8.97,1111122 
DISL,ioos:station:DISL:KATA:1,2013-12-05T14:00:00Z,30.2583,-88.2131,3.747,9.03,1111122 
DISL,ioos:station:DISL:KATA:1,2013-12-05T14:30:00Z,30.2583,-88.2131,3.735,8.92,1111122 
DISL,ioos:station:DISL:KATA:1,2013-12-05T15:00:00Z,30.2583,-88.2131,3.729,8.89,1111122 
DISL,ioos:station:DISL:KATA:1,2013-12-05T15:30:00Z,30.2583,-88.2131,3.737,8.32,1111122 
DISL,ioos:station:DISL:KATA:1,2013-12-05T16:00:00Z,30.2583,-88.2131,3.749,8.02,1111122 
DISL,ioos:station:DISL:KATA:1,2013-12-05T16:30:00Z,30.2583,-88.2131,3.766,8.61,1111122 
DISL,ioos:station:DISL:KATA:1,2013-12-05T17:00:00Z,30.2583,-88.2131,3.79,8.79,1111122 
DISL,ioos:station:DISL:KATA:1,2013-12-05T17:30:00Z,30.2583,-88.2131,3.809,8.97,1111122 
DISL,ioos:station:DISL:KATA:1,2013-12-05T18:00:00Z,30.2583,-88.2131,3.827,8.9,1111122 
DISL,ioos:station:DISL:KATA:1,2013-12-05T18:30:00Z,30.2583,-88.2131,3.844,8.99,1111122 
DISL,ioos:station:DISL:KATA:1,2013-12-05T19:00:00Z,30.2583,-88.2131,3.864,8.48,1111122 
DISL,ioos:station:DISL:KATA:1,2013-12-05T19:30:00Z,30.2583,-88.2131,3.889,8.31,1111122 
DISL,ioos:station:DISL:KATA:1,2013-12-05T20:00:00Z,30.2583,-88.2131,3.923,8.38,1111122 
DISL,ioos:station:DISL:KATA:1,2013-12-05T20:30:00Z,30.2583,-88.2131,3.952,8.66,1111122 
DISL,ioos:station:DISL:KATA:1,2013-12-05T21:00:00Z,30.2583,-88.2131,3.988,8.85,1111122 
DISL,ioos:station:DISL:KATA:1,2013-12-05T21:30:00Z,30.2583,-88.2131,4.026,9.19,1111122 
DISL,ioos:station:DISL:KATA:1,2013-12-05T22:00:00Z,30.2583,-88.2131,4.055,9.22,1111122 
DISL,ioos:station:DISL:KATA:1,2013-12-05T22:30:00Z,30.2583,-88.2131,4.088,9.2,1111122 
DISL,ioos:station:DISL:KATA:1,2013-12-05T23:00:00Z,30.2583,-88.2131,4.118,9.06,1111122 
DISL,ioos:station:DISL:KATA:1,2013-12-05T23:30:00Z,30.2583,-88.2131,4.14,9.07,1111122 
DISL,ioos:station:DISL:KATA:1,2013-12-06T00:00:00Z,30.2583,-88.2131,4.163,9.07,1111122 
DISL,ioos:station:DISL:KATA:1,2013-12-06T00:30:00Z,30.2583,-88.2131,4.199,9.05,1111122 
DISL,ioos:station:DISL:KATA:1,2013-12-06T01:00:00Z,30.2583,-88.2131,4.233,9.0,1111122 
DISL,ioos:station:DISL:KATA:1,2013-12-06T01:30:00Z,30.2583,-88.2131,4.273,8.93,1111122 
DISL,ioos:station:DISL:KATA:1,2013-12-06T02:00:00Z,30.2583,-88.2131,4.316,8.87,1111122 
DISL,ioos:station:DISL:KATA:1,2013-12-06T02:30:00Z,30.2583,-88.2131,4.359,8.84,1111122 
DISL,ioos:station:DISL:KATA:1,2013-12-06T03:00:00Z,30.2583,-88.2131,4.403,8.81,1111122 
DISL,ioos:station:DISL:KATA:1,2013-12-06T03:30:00Z,30.2583,-88.2131,4.447,8.91,1111122 
DISL,ioos:station:DISL:KATA:1,2013-12-06T04:00:00Z,30.2583,-88.2131,4.476,9.04,1111122 
DISL,ioos:station:DISL:KATA:1,2013-12-06T04:30:00Z,30.2583,-88.2131,4.493,9.06,1111122 
DISL,ioos:station:DISL:KATA:1,2013-12-06T05:00:00Z,30.2583,-88.2131,4.496,8.96,1111122 
DISL,ioos:station:DISL:KATA:1,2013-12-06T05:30:00Z,30.2583,-88.2131,4.485,8.89,1111122 
DISL,ioos:station:DISL:KATA:1,2013-12-06T06:00:00Z,30.2583,-88.2131,4.46,8.79,1111122 
DISL,ioos:station:DISL:KATA:1,2013-12-06T06:30:00Z,30.2583,-88.2131,4.437,8.29,1111122 
DISL,ioos:station:DISL:KATA:1,2013-12-06T07:00:00Z,30.2583,-88.2131,4.399,8.25,1111122 
DISL,ioos:station:DISL:KATA:1,2013-12-06T07:30:00Z,30.2583,-88.2131,4.369,8.13,1111122 
DISL,ioos:station:DISL:KATA:1,2013-12-06T08:00:00Z,30.2583,-88.2131,4.349,8.12,1111122 
DISL,ioos:station:DISL:KATA:1,2013-12-06T08:30:00Z,30.2583,-88.2131,4.336,8.06,1111122 
DISL,ioos:station:DISL:KATA:1,2013-12-06T09:00:00Z,30.2583,-88.2131,4.315,8.23,1111122 
DISL,ioos:station:DISL:KATA:1,2013-12-06T09:30:00Z,30.2583,-88.2131,4.295,8.43,1111122 
DISL,ioos:station:DISL:KATA:1,2013-12-06T10:00:00Z,30.2583,-88.2131,4.261,8.58,1111122 
DISL,ioos:station:DISL:KATA:1,2013-12-06T10:30:00Z,30.2583,-88.2131,4.219,8.53,1111122 
DISL,ioos:station:DISL:KATA:1,2013-12-06T11:00:00Z,30.2583,-88.2131,4.168,8.5,1111122 
DISL,ioos:station:DISL:KATA:1,2013-12-06T11:30:00Z,30.2583,-88.2131,4.119,8.66,1111122 
DISL,ioos:station:DISL:KATA:1,2013-12-06T12:00:00Z,30.2583,-88.2131,4.067,8.63,1111122 
DISL,ioos:station:DISL:KATA:1,2013-12-06T12:30:00Z,30.2583,-88.2131,4.008,8.46,1111122 
DISL,ioos:station:DISL:KATA:1,2013-12-06T13:00:00Z,30.2583,-88.2131,3.953,8.5,1111122 
DISL,ioos:station:DISL:KATA:1,2013-12-06T13:30:00Z,30.2583,-88.2131,3.914,8.35,1111122 
DISL,ioos:station:DISL:KATA:1,2013-12-06T14:00:00Z,30.2583,-88.2131,3.883,8.42,1111122 
DISL,ioos:station:DISL:KATA:1,2013-12-06T14:30:00Z,30.2583,-88.2131,3.86,8.44,1111122 
DISL,ioos:station:DISL:KATA:1,2013-12-06T15:00:00Z,30.2583,-88.2131,3.85,8.38,1111122 
DISL,ioos:station:DISL:KATA:1,2013-12-06T15:30:00Z,30.2583,-88.2131,3.844,8.32,1111122 